Find Kuiper-00032

NORAD ID: 63745 Int'l Des: 2025-088 Owner: KUIP Country: US Constellation: kuiper operational
LEOCIRCULAR

リアルタイム位置

3D地球を読み込み中...

Kuiper-00032について

説明を読み込み中...

次回通過

Passes for default location (London). Set your location on the main map for personalized predictions.

高度履歴

Loading altitude history...

軌道要素

1 63745U 25088X 26105.44674272 .00005916 00000-0 16330-3 0 9995
2 63745 51.8675 206.3087 0004307 255.8553 104.1956 15.38525127 55209
Epoch: Apr 15, 2026 • Age: 12 hours

現在のステータス

高度 455.4 km
速度 7.64 km/s
衛星直下点 -24.74°S, 137.37°W
打ち上げ日 Apr 28, 2025
運用期間 0.9 years
タイプ internet

技術仕様

分類 Payload
質量 490.00 kg
乾燥質量 490.00 kg
総質量 490.00 kg
長さ 1.80 m
直径 0.70 m
スパン 5.00 m
形状 Box + 2 pan
製造者 KUIP
バスタイプ Kuiper
フェーズステータス In Orbit
所有者/国 KUIP/US

Most Searched